| time (UTC) | temp F | wind direction | speed knots | gust knots | rain 1hr in | rain 24hr in | rain mn in | humidity % | barometer mb |
| 20260505201104 | 42 | 0 | 0.0 | 1.7 | 0.00 | 0.14 | 0.00 | 55 | 1012.2 |
| 20260505200114 | 42 | 263 | 0.9 | 2.6 | 0.00 | 0.14 | 0.00 | 52 | 1012.0 |
| 20260505194103 | 43 | 313 | 0.9 | 1.7 | 0.00 | 0.14 | 0.00 | 53 | 1012.0 |
| 20260505193603 | 44 | 308 | 1.7 | 1.7 | 0.00 | 0.14 | 0.00 | 51 | 1012.0 |
| 20260505191104 | 46 | 274 | 0.9 | 1.7 | 0.00 | 0.14 | 0.00 | 46 | 1011.7 |
| 20260505190605 | 46 | 273 | 0.9 | 1.7 | 0.00 | 0.14 | 0.00 | 43 | 1011.8 |
| 20260505184104 | 48 | 301 | 0.9 | 2.6 | 0.00 | 0.14 | 0.00 | 37 | 1011.6 |
| 20260505183104 | 49 | 296 | 1.7 | 6.1 | 0.00 | 0.14 | 0.00 | 37 | 1011.7 |
| 20260505174103 | 51 | 279 | 1.7 | 5.2 | 0.00 | 0.14 | 0.00 | 31 | 1011.5 |
| 20260505173604 | 51 | 263 | 5.2 | 4.3 | 0.00 | 0.14 | 0.00 | 33 | 1011.5 |
| 20260505173103 | 51 | 293 | 2.6 | 2.6 | 0.00 | 0.14 | 0.00 | 33 | 1011.4 |
| 20260505171103 | 51 | 257 | 7.0 | 7.0 | 0.00 | 0.14 | 0.00 | 32 | 1011.4 |
| 20260505161103 | 52 | 295 | 1.7 | 7.0 | 0.00 | 0.14 | 0.00 | 27 | 1011.3 |
| 20260505160605 | 52 | 336 | 2.6 | 8.7 | 0.00 | 0.14 | 0.00 | 29 | 1011.4 |
| 20260505151603 | 53 | 263 | 8.7 | 8.7 | 0.00 | 0.14 | 0.00 | 27 | 1011.4 |
| 20260505151103 | 53 | 282 | 7.0 | 8.7 | 0.00 | 0.14 | 0.00 | 28 | 1011.4 |
| 20260505150604 | 54 | 273 | 7.0 | 8.7 | 0.00 | 0.14 | 0.00 | 27 | 1011.4 |
| 20260505150114 | 54 | 288 | 0.9 | 10.4 | 0.00 | 0.14 | 0.00 | 28 | 1011.3 |
| 20260505140604 | 53 | 258 | 0.9 | 10.4 | 0.00 | 0.14 | 0.00 | 28 | 1011.2 |
| 20260505140114 | 52 | 262 | 2.6 | 10.4 | 0.00 | 0.14 | 0.00 | 29 | 1011.3 |
| 20260505130114 | 53 | 49 | 1.7 | 10.4 | 0.00 | 0.14 | 0.00 | 31 | 1011.2 |
| 20260505124603 | 53 | 300 | 1.7 | 7.8 | 0.00 | 0.14 | 0.00 | 34 | 1011.1 |
| 20260505124103 | 53 | 299 | 1.7 | 8.7 | 0.00 | 0.14 | 0.00 | 31 | 1011.1 |
| 20260505123603 | 53 | 277 | 6.1 | 13.9 | 0.00 | 0.14 | 0.00 | 31 | 1011.1 |
| 20260505123104 | 53 | 323 | 1.7 | 13.9 | 0.00 | 0.14 | 0.00 | 30 | 1011.2 |
| 20260505121103 | 53 | 274 | 2.6 | 7.8 | 0.00 | 0.14 | 0.00 | 32 | 1011.1 |
| 20260505111104 | 52 | 294 | 4.3 | 8.7 | 0.00 | 0.14 | 0.00 | 32 | 1011.0 |
| 20260505110603 | 52 | 320 | 11.3 | 10.4 | 0.00 | 0.14 | 0.00 | 32 | 1011.0 |
| 20260505101604 | 52 | 242 | 4.3 | 8.7 | 0.00 | 0.14 | 0.00 | 38 | 1010.9 |
| 20260505101104 | 52 | 246 | 1.7 | 12.2 | 0.00 | 0.14 | 0.00 | 34 | 1010.9 |
| 20260505100603 | 51 | 297 | 7.0 | 12.2 | 0.00 | 0.14 | 0.00 | 35 | 1011.0 |
| 20260505094603 | 51 | 273 | 1.7 | 12.2 | 0.00 | 0.14 | 0.00 | 36 | 1010.9 |
| 20260505093604 | 51 | 331 | 1.7 | 14.8 | 0.00 | 0.14 | 0.00 | 39 | 1010.8 |
| 20260505084604 | 50 | 205 | 5.2 | 8.7 | 0.00 | 0.14 | 0.00 | 42 | 1010.6 |
| 20260505083604 | 50 | 291 | 7.0 | 7.8 | 0.00 | 0.14 | 0.00 | 43 | 1010.7 |
| 20260505081104 | 48 | 182 | 0.9 | 8.7 | 0.00 | 0.14 | 0.00 | 44 | 1010.7 |
| 20260505074603 | 48 | 305 | 5.2 | 8.7 | 0.00 | 0.14 | 0.00 | 43 | 1010.6 |
| 20260505073105 | 47 | 0 | 2.6 | 8.7 | 0.00 | 0.14 | 0.00 | 46 | 1010.5 |
| 20260505071603 | 46 | 343 | 1.7 | 7.0 | 0.00 | 0.14 | 0.00 | 47 | 1010.5 |
| 20260505071104 | 46 | 334 | 2.6 | 7.8 | 0.00 | 0.14 | 0.00 | 48 | 1010.5 |
| 20260505070603 | 46 | 5 | 4.3 | 7.8 | 0.00 | 0.14 | 0.00 | 48 | 1010.6 |
| 20260505064604 | 46 | 292 | 1.7 | 7.8 | 0.00 | 0.14 | 0.00 | 51 | 1010.4 |
| 20260505063104 | 45 | 321 | 2.6 | 11.3 | 0.00 | 0.14 | 0.00 | 50 | 1010.3 |
| 20260505061104 | 45 | 74 | 0.9 | 10.4 | 0.00 | 0.14 | 0.00 | 53 | 1010.2 |
| 20260505060114 | 45 | 246 | 1.7 | 8.7 | 0.00 | 0.14 | 0.00 | 54 | 1010.2 |
| 20260505054604 | 45 | 12 | 2.6 | 7.8 | 0.00 | 0.14 | 0.00 | 54 | 1010.2 |
| 20260505053603 | 44 | 5 | 6.1 | 10.4 | 0.00 | 0.14 | 0.00 | 53 | 1010.1 |
| 20260505053104 | 44 | 350 | 7.8 | 10.4 | 0.00 | 0.14 | 0.00 | 54 | 1010.1 |
| 20260505051103 | 44 | 352 | 1.7 | 7.0 | 0.00 | 0.14 | 0.00 | 65 | 1009.9 |
| 20260505050114 | 44 | 309 | 2.6 | 5.2 | 0.00 | 0.14 | 0.00 | 68 | 1009.8 |
| 20260505041103 | 43 | 265 | 0.9 | 2.6 | 0.00 | 0.14 | 0.00 | 76 | 1009.4 |
| 20260505040606 | 43 | 253 | 0.9 | 1.7 | 0.00 | 0.14 | 0.00 | 76 | 1009.4 |
| 20260505034604 | 43 | 0 | 0.0 | 1.7 | 0.00 | 0.14 | 0.00 | 79 | 1009.2 |
| 20260505030604 | 45 | 291 | 0.9 | 2.6 | 0.00 | 0.14 | 0.00 | 80 | 1009.0 |
| 20260505030114 | 45 | 301 | 2.6 | 2.6 | 0.00 | 0.14 | 0.00 | 81 | 1009.0 |
| 20260505024604 | 45 | 292 | 1.7 | 5.2 | 0.00 | 0.14 | 0.00 | 82 | 1008.9 |
| 20260505023604 | 46 | 273 | 1.7 | 4.3 | 0.00 | 0.15 | 0.00 | 82 | 1008.9 |
| 20260505023104 | 46 | 300 | 0.9 | 7.0 | 0.00 | 0.15 | 0.00 | 82 | 1009.0 |
| 20260505021604 | 46 | 275 | 2.6 | 7.0 | 0.00 | 0.16 | 0.00 | 82 | 1008.9 |
| 20260505021104 | 46 | 295 | 4.3 | 7.8 | 0.00 | 0.16 | 0.00 | 82 | 1008.8 |
| 20260505014604 | 46 | 229 | 7.0 | 8.7 | 0.00 | 0.16 | 0.00 | 82 | 1008.9 |
| 20260505013603 | 46 | 286 | 7.0 | 10.4 | 0.00 | 0.17 | 0.00 | 82 | 1008.9 |
| 20260505011604 | 47 | 261 | 7.0 | 10.4 | 0.00 | 0.17 | 0.00 | 82 | 1008.9 |
| 20260505010604 | 47 | 283 | 7.8 | 11.3 | 0.00 | 0.18 | 0.00 | 83 | 1008.8 |
| 20260505001104 | 47 | 202 | 10.4 | 13.9 | 0.00 | 0.22 | 0.00 | 83 | 1009.1 |
| 20260505000604 | 47 | 179 | 1.7 | 12.2 | 0.00 | 0.23 | 0.00 | 83 | 1009.1 |
| 20260505000115 | 47 | 261 | 6.1 | 12.2 | 0.00 | 0.23 | 0.00 | 84 | 1009.1 |
| 20260504234604 | 47 | 290 | 2.6 | 11.3 | 0.00 | 0.24 | 0.00 | 83 | 1009.0 |
| 20260504234103 | 47 | 243 | 5.2 | 11.3 | 0.00 | 0.24 | 0.00 | 83 | 1008.8 |
| 20260504231104 | 47 | 265 | 1.7 | 14.8 | 0.00 | 0.24 | 0.00 | 82 | 1009.0 |
| 20260504230115 | 47 | 263 | 4.3 | 11.3 | 0.14 | 0.26 | 0.00 | 83 | 1009.0 |
| 20260504224604 | 47 | 268 | 1.7 | 10.4 | 0.14 | 0.28 | 0.00 | 82 | 1009.1 |
| 20260504221604 | 47 | 268 | 5.2 | 7.8 | 0.14 | 0.28 | 0.00 | 82 | 1009.2 |
| 20260504221107 | 47 | 243 | 5.2 | 8.7 | 0.14 | 0.28 | 0.00 | 82 | 1009.3 |
| 20260504214604 | 47 | 242 | 5.2 | 7.8 | 0.00 | 0.14 | 0.14 | 82 | 1009.4 |
| 20260504211603 | 47 | 201 | 4.3 | 11.3 | 0.00 | 0.14 | 0.14 | 81 | 1009.3 |